{"data":{"norad_id":68998,"epoch":"2026-09-19T22:54:28.507104Z","epoch_age_seconds":66512,"freshness":"FRESH","line1":"1 68998U 26100U   26262.95449661  .00000646  00000+0  67660-4 0  9995","line2":"2 68998  97.7258 158.6986 0004882  92.0493 268.1286 14.92906448 20835","mean_motion":14.92906448,"eccentricity":0.0004882,"inclination_deg":97.7258,"raan_deg":158.6986,"arg_perigee_deg":92.0493,"mean_anomaly_deg":268.1286,"bstar":6.766e-5,"rev_number":2083,"period_min":96.456144450921,"perigee_km":585.47723589013,"apogee_km":592.27982985642,"semimajor_km":6967.0155328733,"source":"CELESTRAK","updated_at":"2026-09-20T09:00:24.624793Z"}}